"Pseudo-MPEC" for P10N4cf

Created 2019 Apr 22 11:07:06 UT using Find_Orb

Click here for an explanation of pseudo-MPECs

 
 Astrometry: 
     P10N4cf  C2019 04 09b*tAi)(7LjaHb3_TAstrometryPBG5I2Xredacted;*:'%vAZtcIF51
     P10N4cf  C2019 04 09Xe+okP0mlclickf[Q@1MBPT2[Hn`xn'XBD[/hereAJUK4H=!)HunF51
     P10N4cf  C2019 04 09v=HLK5-Mfor)explanationmKwO]?sst]nD8?2:6gD^clZZ;a,PnF51

Station data:
(F51) Pan-STARRS 1, Haleakala  (N20.707235 W156.255910)  US/Hawaii.
   Observers N. Primak, A. Schultz, S. Watters, J. Thiel, T. Goggia. Measurer
   PS1 Science Consortium. 1.8-m Ritchey-Chrétien + CCD.

Orbital elements:  P10N4cf
   Perihelion 2019 Aug 11.778365 +/- 202 TT = 18:40:50 (JD 2458707.278365)
Epoch 2019 Apr 10.0 TT = JDT 2458583.5   Earth MOID: 0.0058   AutoNEOCP
M 243.89102379 +/- 90               (J2000 ecliptic)
n   0.93803934 +/- 0.397            Peri.  214.10900 +/- 58
a   1.03352744 +/- 0.292            Node   103.36827 +/- 60
e   0.0126197 +/- 0.24              Incl.    1.28623 +/- 38
P   1.05/383.77d           H 27.7   G  0.15   U 12.1  SR
q 1.02048458 +/- 0.736    Q 1.04657030 +/- 23.2
From 3 observations 2019 Apr. 9 (15.5 min); mean residual 0".05
Residuals in arcseconds: 
190409 F51  .04-  .04+    190409 F51  .07+  .07-    190409 F51  .04-  .03+    

Ephemerides (geocentric):
Date (UTC) HH   RA              Dec         delta   r     elong  mag " sig PA
---- -- -- --  -------------   -----------  ------ ------ -----  --- ---- ---
2019 04 22 11  14 35 15.631   +21 47 24.51  .03855 1.0369 144.9 22.1 0.0  146
2019 04 22 12  14 35 12.491   +21 48 16.99  .03853 1.0369 144.9 22.1 0.0  146
2019 04 22 13  14 35 09.344   +21 49 09.39  .03852 1.0369 144.9 22.1 0.0  146
2019 04 22 14  14 35 06.190   +21 50 01.71  .03850 1.0369 144.9 22.1 0.0  146
2019 04 22 15  14 35 03.030   +21 50 53.95  .03848 1.0369 144.9 22.1 0.0  146
2019 04 22 16  14 34 59.862   +21 51 46.10  .03846 1.0369 144.9 22.1 0.0  146
2019 04 22 17  14 34 56.688   +21 52 38.18  .03844 1.0368 144.8 22.1 0.0  146
2019 04 22 18  14 34 53.507   +21 53 30.18  .03843 1.0368 144.8 22.1 0.0  146
2019 04 22 19  14 34 50.320   +21 54 22.09  .03841 1.0368 144.8 22.1 0.0  146
2019 04 22 20  14 34 47.125   +21 55 13.92  .03839 1.0368 144.8 22.1 0.0  146
2019 04 22 21  14 34 43.924   +21 56 05.68  .03837 1.0368 144.8 22.1 0.0  146
2019 04 22 22  14 34 40.716   +21 56 57.34  .03835 1.0368 144.8 22.1 0.0  146
2019 04 22 23  14 34 37.501   +21 57 48.93  .03834 1.0368 144.8 22.1 0.0  146
2019 04 23 00  14 34 34.279   +21 58 40.44  .03832 1.0368 144.7 22.1 0.0  146
2019 04 23 01  14 34 31.050   +21 59 31.86  .03830 1.0368 144.7 22.1 0.0  146
2019 04 23 02  14 34 27.815   +22 00 23.20  .03828 1.0368 144.7 22.1 0.0  146
2019 04 23 03  14 34 24.573   +22 01 14.45  .03827 1.0368 144.7 22.1 0.0  146
2019 04 23 04  14 34 21.324   +22 02 05.63  .03825 1.0367 144.7 22.1 0.0  146
2019 04 23 05  14 34 18.069   +22 02 56.72  .03823 1.0367 144.7 22.1 0.0  146
2019 04 23 06  14 34 14.806   +22 03 47.72  .03821 1.0367 144.7 22.1 0.0  146
2019 04 23 07  14 34 11.537   +22 04 38.64  .03820 1.0367 144.6 22.1 0.0  146
2019 04 23 08  14 34 08.261   +22 05 29.48  .03818 1.0367 144.6 22.1 0.0  146
2019 04 23 09  14 34 04.979   +22 06 20.23  .03816 1.0367 144.6 22.1 0.0  146
2019 04 23 10  14 34 01.689   +22 07 10.90  .03814 1.0367 144.6 22.1 0.0  146
2019 04 23 11  14 33 58.393   +22 08 01.48  .03813 1.0367 144.6 22.1 0.0  146
2019 04 23 12  14 33 55.090   +22 08 51.98  .03811 1.0367 144.6 22.1 0.0  146
2019 04 23 13  14 33 51.781   +22 09 42.39  .03809 1.0367 144.5 22.1 0.0  146
2019 04 23 14  14 33 48.464   +22 10 32.72  .03807 1.0367 144.5 22.1 0.0  146
2019 04 23 15  14 33 45.141   +22 11 22.96  .03806 1.0366 144.5 22.1 0.0  146
2019 04 23 16  14 33 41.812   +22 12 13.11  .03804 1.0366 144.5 22.1 0.0  146
2019 04 23 17  14 33 38.475   +22 13 03.18  .03802 1.0366 144.5 22.1 0.0  146
2019 04 23 18  14 33 35.132   +22 13 53.16  .03801 1.0366 144.5 22.1 0.0  146
2019 04 23 19  14 33 31.782   +22 14 43.05  .03799 1.0366 144.4 22.1 0.0  146
2019 04 23 20  14 33 28.425   +22 15 32.86  .03797 1.0366 144.4 22.1 0.0  146
2019 04 23 21  14 33 25.062   +22 16 22.58  .03795 1.0366 144.4 22.1 0.0  146
2019 04 23 22  14 33 21.692   +22 17 12.21  .03794 1.0366 144.4 22.1 0.0  146
2019 04 23 23  14 33 18.315   +22 18 01.75  .03792 1.0366 144.4 22.1 0.0  146
2019 04 24 00  14 33 14.932   +22 18 51.21  .03790 1.0366 144.4 22.1 0.0  146
2019 04 24 01  14 33 11.542   +22 19 40.57  .03788 1.0366 144.3 22.1 0.0  146
2019 04 24 02  14 33 08.145   +22 20 29.85  .03787 1.0366 144.3 22.1 0.0  146
2019 04 24 03  14 33 04.742   +22 21 19.04  .03785 1.0365 144.3 22.1 0.0  146
2019 04 24 04  14 33 01.332   +22 22 08.14  .03783 1.0365 144.3 22.1 0.0  146
2019 04 24 05  14 32 57.915   +22 22 57.15  .03782 1.0365 144.3 22.1 0.0  145
2019 04 24 06  14 32 54.492   +22 23 46.07  .03780 1.0365 144.3 22.1 0.0  145
2019 04 24 07  14 32 51.062   +22 24 34.90  .03778 1.0365 144.2 22.0 0.0  145
2019 04 24 08  14 32 47.625   +22 25 23.64  .03777 1.0365 144.2 22.0 0.0  145
2019 04 24 09  14 32 44.182   +22 26 12.29  .03775 1.0365 144.2 22.0 0.0  145
2019 04 24 10  14 32 40.732   +22 27 00.85  .03773 1.0365 144.2 22.0 0.0  145